Weather History for Wichita Falls, TX

Change the Weather History Date:

Thursday, August 8, 2013

  Actual Average Record
Temperature  
Mean Temperature 88 °F 85 °F  
Max Temperature 102 °F 98 °F 109 °F (1970)
Min Temperature 73 °F 72 °F 58 °F (1989)
Cooling Degree Days 23 20  
Month to date cooling degree days 197 160  
Year to date cooling degree days 1643 1516  
Growing Degree Days 38 (Base 50)    
Moisture  
Dew Point 68 °F    
Average Humidity 58    
Maximum Humidity 87    
Minimum Humidity 29    
Precipitation  
Precipitation 0.10 in 0.08 in 0.90 in (1903)
Month to date precipitation 0.10 0.60  
Year to date precipitation 14.09 17.83  
Sea Level Pressure  
Sea Level Pressure 29.80 in    
Wind  
Wind Speed 8 mph (East)    
Max Wind Speed 28 mph    
Max Gust Speed 35 mph    
Visibility 10 miles    
Events Rain , Thunderstorm    
T = Trace of Precipitation, MM = Missing Value Source: NWS Daily Summary

Daily Weather History Graph

Daily Weather History Graph

Search for Another Location

Airport:

Trip Planner

Search our weather history database for the weather conditions in past years. The results will help you decide how hot, cold, wet, or windy it might be!

Date:

Astronomy

Aug. 08, 2013 Rise Set
Actual Time 6:50 AM CDT 8:27 PM CDT
Civil Twilight 6:23 AM CDT 8:54 PM CDT
Nautical Twilight 5:51 AM CDT 9:26 PM CDT
Astronomical Twilight 5:17 AM CDT 10:00 PM CDT
Moon 8:31 AM CDT (8/8) 9:16 PM CDT (8/8)
Length of Visible Light 14h 30m
Length of Day
13h 37m
Waxing Crescent, 3% of the Moon is Illuminated
Aug 8
Waxing Crescent
Aug 14
First Quarter
Aug 20
Full
Aug 28
Last Quarter
Sep 5
New

Hourly Weather History & Observations

Time (CDT) Temp. Heat Index Dew Point Humidity Pressure Visibility Wind Dir Wind Speed Gust Speed Precip Events Conditions
12:52 AM 82.9 °F 84.6 °F 64.9 °F 54% 29.79 in 10.0 mi West 10.4 mph - N/A   Partly Cloudy
1:52 AM 81.0 °F 82.7 °F 64.9 °F 58% 29.76 in 10.0 mi Calm Calm - N/A   Partly Cloudy
2:52 AM 80.1 °F 81.9 °F 64.9 °F 60% 29.75 in 10.0 mi ESE 4.6 mph - N/A   Clear
3:52 AM 78.1 °F - 66.0 °F 66% 29.74 in 10.0 mi ENE 9.2 mph - N/A   Clear
4:52 AM 75.0 °F - 66.9 °F 76% 29.78 in 10.0 mi NNW 5.8 mph - N/A   Scattered Clouds
5:52 AM 75.0 °F - 66.0 °F 73% 29.79 in 10.0 mi North 8.1 mph - N/A   Scattered Clouds
6:52 AM 75.0 °F - 66.0 °F 73% 29.81 in 10.0 mi NE 4.6 mph - N/A   Scattered Clouds
7:52 AM 75.9 °F - 66.9 °F 74% 29.83 in 10.0 mi NE 8.1 mph - N/A   Scattered Clouds
8:52 AM 79.0 °F - 70.0 °F 74% 29.86 in 10.0 mi NE 10.4 mph - N/A   Mostly Cloudy
9:52 AM 84.0 °F 89.0 °F 71.1 °F 65% 29.85 in 10.0 mi East 10.4 mph - N/A   Mostly Cloudy
10:52 AM 88.0 °F 92.9 °F 70.0 °F 55% 29.84 in 10.0 mi East 11.5 mph - N/A   Mostly Cloudy
11:52 AM 91.9 °F 95.9 °F 68.0 °F 45% 29.83 in 10.0 mi ESE 16.1 mph - N/A   Mostly Cloudy
12:52 PM 93.9 °F 97.0 °F 66.0 °F 40% 29.80 in 10.0 mi SE 11.5 mph 18.4 mph N/A   Scattered Clouds
1:52 PM 97.0 °F 99.3 °F 64.0 °F 34% 29.79 in 10.0 mi South 10.4 mph 18.4 mph N/A   Scattered Clouds
2:52 PM 100.0 °F 103.0 °F 64.0 °F 31% 29.78 in 10.0 mi SSE 17.3 mph - N/A   Scattered Clouds
3:52 PM 100.0 °F 101.8 °F 63.0 °F 29% 29.76 in 10.0 mi Calm Calm - N/A   Scattered Clouds
4:52 PM 98.1 °F 101.2 °F 64.9 °F 34% 29.74 in 10.0 mi ESE 12.7 mph 16.1 mph N/A Thunderstorm Mostly Cloudy
5:19 PM 96.8 °F 100.7 °F 66.2 °F 37% 29.77 in 10.0 mi SE 16.1 mph 20.7 mph N/A Thunderstorm Thunderstorm
5:23 PM 96.8 °F 100.7 °F 66.2 °F 37% 29.77 in 9.0 mi SE 13.8 mph 20.7 mph 0.00 in Rain , Thunderstorm Light Thunderstorms and Rain
5:38 PM 84.2 °F 89.6 °F 71.6 °F 66% 29.80 in 8.0 mi NNW 18.4 mph 27.6 mph 0.00 in Rain , Thunderstorm Thunderstorms and Rain
5:48 PM 84.2 °F 88.4 °F 69.8 °F 62% 29.79 in 3.0 mi Variable 3.5 mph 34.5 mph 0.07 in Rain , Thunderstorm Light Thunderstorms and Rain
5:52 PM 87.1 °F 92.0 °F 70.0 °F 57% 29.75 in 5.0 mi NE 9.2 mph 34.5 mph 0.07 in Rain , Thunderstorm Light Thunderstorms and Rain
6:01 PM 80.6 °F 85.4 °F 73.4 °F 79% 29.80 in 10.0 mi NNE 19.6 mph 29.9 mph 0.00 in   Mostly Cloudy
6:52 PM 86.0 °F 90.1 °F 69.1 °F 57% 29.73 in 10.0 mi ENE 10.4 mph - 0.00 in   Mostly Cloudy
7:52 PM 82.9 °F 87.5 °F 71.1 °F 67% 29.76 in 10.0 mi East 6.9 mph - N/A   Mostly Cloudy
8:26 PM 82.4 °F 87.2 °F 71.6 °F 70% 29.86 in 10.0 mi WSW 17.3 mph 20.7 mph N/A Thunderstorm Mostly Cloudy
8:52 PM 86.0 °F 90.1 °F 69.1 °F 57% 29.81 in 10.0 mi SW 6.9 mph - N/A Thunderstorm Mostly Cloudy
9:03 PM 87.8 °F 89.4 °F 64.4 °F 46% 29.86 in 10.0 mi SW 10.4 mph - N/A Thunderstorm Partly Cloudy
9:13 PM 87.8 °F 89.4 °F 64.4 °F 46% 29.86 in 10.0 mi SW 10.4 mph - N/A   Partly Cloudy
9:52 PM 79.0 °F - 72.0 °F 79% 29.85 in 10.0 mi SW 8.1 mph - 0.02 in Rain Light Rain
10:52 PM 73.9 °F - 70.0 °F 87% 29.82 in 10.0 mi NE 6.9 mph - 0.01 in   Clear
11:52 PM 73.0 °F - 70.0 °F 90% 29.79 in 10.0 mi Calm Calm - N/A   Clear